Wind_Speed
18 16 17 18 19 18 19 20 19 19 19 19 19 20 20 19 19 18 17 17 17 17 17 16 15 15 16 16 17 18 19 19 19 20 19 19 18 18 19 19 19 19 18 18
18 18 17 17 18 18 19 19 18 19 18 19 19 19 19 20 19 18 18 18 18 18 16 15 15 16 16 17 18 19 19 19 20 20 20 19 19 19 19 19 19 19 19 19
18 18 18 18 19 20 20 19 20 20 21 21 20 21 20 20 19 19 18 18 18 18 17 16 17 17 18 18 19 19 20 20 20 20 20 20 19 19 19 19 19 19 20 20
18 17 19 20 19 20 20 21 21 21 22 22 22 22 21 20 19 19 19 19 19 19 18 18 18 19 19 20 20 21 20 20 20 20 20 20 19 19 20 20 20 20 20 21
19 19 19 20 20 20 21 22 22 22 21 21 22 22 21 21 20 19 19 19 19 19 20 20 20 20 20 20 21 21 21 20 20 20 20 19 19 20 20 21 21 21 22 21
20 19 20 21 21 21 21 23 23 22 21 21 22 22 22 21 20 20 20 20 20 20 21 21 21 20 20 20 20 20 20 19 19 19 19 19 19 20 20 21 21 22 22 22
21 21 22 20 20 21 23 24 22 23 22 22 22 22 22 22 22 21 21 20 20 20 20 20 20 20 20 20 19 19 19 19 19 19 20 20 20 21 21 21 21 22 22 22
22 22 23 22 22 23 23 24 23 23 23 23 23 23 23 22 23 23 21 20 20 20 19 20 20 19 20 19 19 19 19 19 19 19 20 21 21 21 21 21 22 22 23 23
25 26 25 24 24 24 24 24 25 26 25 24 24 24 24 24 23 23 22 21 21 20 20 20 20 20 20 19 19 19 19 20 20 20 21 20 20 20 21 22 22 22 22 22
25 26 26 27 25 25 25 25 25 25 25 25 25 25 25 24 24 23 22 22 21 21 20 20 21 21 20 20 19 20 21 21 20 20 20 21 21 22 22 22 22 23 23 23
26 26 26 26 26 25 26 25 25 25 26 26 25 24 24 24 23 22 22 22 22 22 22 22 22 22 21 21 21 22 22 22 21 21 21 21 22 22 22 22 23 23 23 24
27 27 27 27 27 26 26 26 25 25 25 25 24 24 24 23 23 23 23 23 23 23 23 23 23 22 22 22 23 22 22 22 22 22 22 21 22 22 23 23 23 23 24 24
27 27 27 27 26 26 25 25 25 24 24 24 23 23 23 24 23 23 23 23 23 24 23 23 23 23 23 22 22 22 22 22 22 21 21 22 21 22 22 23 23 23 24 24
28 27 26 26 26 25 24 25 24 24 24 23 23 23 23 23 23 22 23 23 24 24 24 24 24 24 23 23 22 22 22 22 22 22 22 23 23 22 22 22 22 22 22 22
27 27 26 26 26 25 25 24 23 23 24 24 24 23 23 23 23 23 23 23 23 24 25 24 24 24 24 24 23 23 23 22 22 22 22 22 23 22 22 22 22 22 21 21
27 26 26 26 26 25 24 24 24 24 23 24 24 24 24 24 23 23 23 23 23 23 23 24 24 25 25 24 24 23 23 22 22 22 22 22 22 22 22 22 22 22 22 21
27 26 26 26 25 24 24 24 24 24 24 24 23 23 23 23 22 23 23 24 24 23 23 23 24 24 24 23 23 23 23 22 22 22 22 22 22 22 22 22 21 21 21 21
26 26 25 25 25 24 24 24 24 23 23 23 23 23 22 21 21 22 22 23 23 23 23 22 23 23 23 23 23 22 22 22 22 22 22 22 22 22 21 21 21 21 22 23
25 24 24 24 25 24 24 23 23 23 22 22 22 21 21 21 21 22 22 22 22 23 22 22 22 22 22 22 22 22 22 22 22 22 22 22 22 22 21 21 21 22 22 23
23 23 23 24 23 23 23 23 23 23 22 22 22 22 22 22 22 23 22 22 22 22 22 22 22 22 21 21 21 21 21 21 21 21 22 21 21 21 21 21 21 22 22 23
22 22 22 22 23 23 24 24 24 23 23 22 22 22 22 22 23 23 23 22 22 22 22 21 21 21 20 20 21 20 20 19 19 20 20 20 20 20 21 21 22 22 23 24
20 21 22 22 22 23 23 23 23 23 23 23 23 22 22 22 23 22 22 22 22 22 21 20 20 20 20 19 19 20 19 19 19 20 20 20 21 21 21 22 22 23 23 23
18 20 21 22 23 23 22 22 23 23 23 23 23 23 23 23 23 23 23 22 22 21 20 20 20 20 20 20 20 20 20 20 20 21 21 21 21 21 21 22 22 22 22 23
18 19 20 21 21 21 21 22 22 23 23 23 23 23 23 23 23 23 23 22 22 21 20 20 20 20 20 20 20 20 20 21 21 21 22 22 22 22 22 22 22 21 22 23
17 18 19 20 20 20 21 21 22 22 22 22 23 23 22 23 23 23 23 22 22 22 21 21 20 20 20 20 20 20 21 22 22 22 22 22 22 22 23 23 22 22 22 22
16 16 17 17 18 18 19 20 20 21 22 22 22 23 23 23 23 23 23 22 21 22 22 22 22 21 21 21 20 21 21 22 22 22 22 22 22 22 22 22 21 21 21 21
15 15 15 15 16 17 18 18 19 20 20 20 20 21 21 22 22 23 23 23 22 22 22 22 22 22 22 22 22 23 23 23 23 22 22 22 22 22 22 21 21 21 22 22
Wind_Direction
245 245 254 261 260 259 254 255 262 266 266 269 275 278 279 279 279 280 282 283 282 283 284 284 284 284 285 286 288 289 290 293 294 295 297 298 298 298 299 301 301 300 301 300
245 243 245 254 258 258 257 260 261 266 266 267 273 280 277 278 278 280 283 283 283 282 281 281 282 284 286 286 288 289 291 293 294 295 297 298 298 298 298 299 300 301 298 297
245 245 248 249 252 254 257 262 263 267 269 276 280 279 278 279 281 280 281 282 284 283 279 280 282 283 284 285 288 290 291 292 293 294 295 296 297 298 300 300 299 300 300 303
255 253 251 253 255 259 261 264 267 269 274 278 279 279 278 277 279 280 280 281 283 280 279 281 284 284 284 285 286 287 289 291 291 293 294 294 295 296 297 298 298 298 300 303
254 257 256 255 255 258 263 264 266 269 272 273 275 275 277 277 276 278 280 282 283 282 282 283 283 284 285 285 286 287 288 290 292 293 293 294 295 296 297 297 297 298 298 299
254 256 258 262 255 258 263 264 265 267 268 270 270 272 275 276 276 277 279 281 281 281 282 284 283 283 284 287 288 288 288 290 292 291 290 291 293 295 297 297 296 297 297 297
253 255 256 261 260 261 262 263 267 268 266 268 269 271 275 276 275 275 277 278 280 281 282 284 285 285 284 287 288 288 287 288 289 289 289 290 292 294 295 296 296 297 297 298
257 258 259 261 263 263 264 266 268 269 268 269 270 271 273 274 275 276 276 278 280 282 283 284 286 286 286 286 287 288 288 288 287 287 287 290 292 292 293 294 296 298 298 298
256 257 260 262 262 264 265 264 265 267 267 268 269 270 272 273 274 274 276 277 278 280 282 284 285 286 287 287 288 288 288 289 288 287 288 290 292 293 293 293 295 296 297 298
258 257 259 262 264 265 265 265 264 266 266 266 269 270 272 273 274 273 273 275 277 277 279 282 284 285 285 286 287 288 289 290 289 287 287 290 292 292 292 292 293 294 294 295
257 259 259 261 263 265 264 264 264 266 264 266 268 270 272 273 273 273 273 275 275 275 276 279 280 282 282 283 286 289 288 288 288 285 285 288 291 292 292 292 291 291 292 293
256 258 260 262 262 264 265 264 265 266 264 264 266 269 272 272 273 272 272 274 274 275 277 279 280 281 281 283 286 288 287 288 288 286 286 287 289 292 293 293 292 292 292 293
255 257 260 262 262 264 265 265 264 265 264 264 266 269 271 272 272 272 273 273 274 274 276 278 279 281 282 285 286 287 288 288 288 287 286 287 289 291 293 292 292 292 293 294
255 257 258 260 262 263 265 265 264 263 263 263 266 269 271 271 271 272 272 273 273 274 275 276 279 280 281 284 286 287 287 287 288 288 287 287 288 291 294 293 293 294 297 297
255 257 258 261 261 262 264 262 261 262 262 264 266 269 271 271 270 271 272 273 275 277 277 276 277 279 282 284 285 286 288 287 288 289 288 288 289 291 294 295 296 297 299 300
253 254 257 260 261 261 259 257 258 259 262 266 267 270 270 269 270 272 273 275 276 277 277 276 276 278 281 283 284 285 287 287 287 288 288 289 289 290 293 294 295 297 298 299
252 254 257 259 260 259 256 256 257 261 264 268 270 271 269 268 270 272 273 274 275 276 277 278 278 279 279 280 281 283 285 286 285 286 288 289 289 289 290 292 293 294 294 297
252 253 256 256 256 257 255 256 259 262 265 268 270 272 272 271 271 272 274 275 275 276 278 278 278 278 278 278 279 281 283 286 286 286 286 287 289 289 290 291 293 294 294 296
256 254 254 254 255 256 256 256 259 262 265 268 270 271 271 272 273 274 275 273 274 275 277 278 279 280 280 279 279 282 284 286 286 288 289 289 289 289 289 289 291 292 295 298
254 252 253 253 253 254 255 256 259 262 264 267 269 269 270 271 272 274 274 274 274 275 276 278 278 279 280 279 281 282 283 285 287 289 291 291 290 291 292 293 293 295 296 298
253 252 252 252 251 253 254 255 257 261 263 265 267 268 269 271 271 272 273 274 276 276 277 277 277 278 279 280 281 282 283 285 287 288 290 289 290 291 292 293 295 296 297 299
253 253 251 251 252 254 254 255 256 258 261 264 265 265 267 269 271 271 272 274 275 276 275 275 274 274 274 276 278 281 283 285 287 288 288 290 292 292 291 292 295 296 297 298
258 258 256 254 254 255 254 256 257 258 260 262 262 262 264 267 268 269 270 272 272 274 275 275 275 273 273 274 277 280 281 284 286 287 288 290 292 292 293 293 296 296 296 297
267 267 262 257 256 257 257 257 256 257 260 262 262 262 263 266 267 267 268 270 271 272 274 275 274 274 273 272 274 277 279 282 285 287 287 287 290 293 294 294 295 297 298 297
269 269 267 264 259 258 261 261 259 258 259 261 262 263 264 266 267 268 268 269 270 272 273 272 273 275 273 273 275 277 279 282 284 287 289 289 290 292 293 293 293 297 299 298
271 271 270 268 265 264 261 260 261 262 262 262 262 263 264 266 267 267 269 270 271 272 272 271 272 271 272 273 275 278 280 282 283 285 287 289 290 291 292 293 293 295 297 299
274 273 272 271 270 267 263 261 262 264 265 265 265 265 266 267 266 268 271 273 273 273 272 272 272 272 271 273 275 278 279 281 282 283 285 287 288 289 291 294 294 295 298 301
Height
5795 5797 5798 5799 5799 5800 5801 5800 5800 5799 5799 5799 5799 5799 5799 5798 5798 5798 5798 5797 5797 5796 5796 5795 5795 5794 5793 5792 5792 5791 5790 5789 5788 5786 5785 5784 5782 5781 5779 5778 5776 5774 5773 5771
5790 5792 5793 5795 5796 5796 5796 5797 5796 5796 5795 5795 5795 5795 5795 5794 5794 5794 5793 5793 5793 5792 5792 5791 5791 5790 5789 5789 5788 5787 5786 5784 5783 5782 5780 5779 5778 5776 5775 5773 5772 5770 5769 5767
5785 5787 5788 5789 5791 5791 5792 5792 5792 5791 5791 5790 5791 5791 5790 5790 5790 5790 5789 5789 5788 5788 5787 5787 5786 5786 5785 5785 5784 5782 5781 5780 5778 5777 5776 5775 5774 5772 5771 5769 5767 5766 5764 5761
5780 5783 5783 5787 5787 5787 5787 5787 5787 5787 5787 5786 5786 5786 5785 5785 5785 5785 5785 5785 5784 5783 5783 5782 5782 5781 5780 5780 5779 5777 5776 5775 5774 5772 5771 5770 5769 5768 5766 5764 5763 5761 5760 5758
5776 5777 5778 5780 5781 5782 5783 5782 5782 5782 5782 5782 5781 5781 5781 5781 5781 5781 5780 5780 5779 5779 5778 5777 5777 5776 5775 5774 5773 5772 5771 5769 5768 5767 5766 5765 5764 5763 5761 5760 5758 5756 5755 5753
5771 5771 5772 5774 5775 5776 5778 5777 5777 5777 5777 5777 5777 5777 5777 5777 5776 5776 5776 5775 5775 5774 5773 5772 5772 5771 5770 5769 5768 5766 5765 5764 5763 5762 5761 5760 5759 5758 5756 5754 5753 5751 5750 5748
5765 5766 5767 5769 5769 5771 5772 5771 5771 5771 5771 5771 5771 5772 5772 5771 5771 5771 5771 5770 5770 5769 5768 5767 5766 5765 5764 5764 5763 5761 5760 5759 5758 5757 5756 5755 5754 5753 5751 5749 5748 5746 5744 5743
5760 5761 5763 5763 5763 5764 5765 5764 5765 5765 5765 5765 5766 5766 5766 5765 5766 5765 5765 5765 5764 5764 5763 5762 5761 5760 5759 5758 5758 5756 5755 5754 5753 5752 5751 5750 5749 5747 5746 5744 5742 5741 5739 5737
5755 5757 5756 5756 5756 5757 5757 5758 5758 5759 5759 5760 5759 5760 5760 5760 5760 5760 5759 5759 5759 5758 5758 5757 5756 5755 5755 5754 5753 5752 5750 5749 5748 5747 5746 5744 5743 5742 5740 5739 5737 5735 5733 5731
5747 5748 5748 5749 5749 5750 5751 5751 5752 5752 5753 5753 5753 5753 5754 5754 5754 5753 5753 5753 5753 5752 5752 5752 5751 5750 5749 5749 5748 5747 5745 5743 5742 5741 5740 5739 5738 5736 5735 5733 5732 5730 5727 5726
5740 5741 5741 5742 5743 5744 5744 5744 5745 5745 5746 5746 5747 5747 5747 5748 5748 5747 5747 5747 5747 5746 5746 5746 5745 5745 5744 5743 5742 5741 5739 5737 5736 5735 5734 5733 5732 5730 5729 5727 5725 5724 5721 5719
5733 5734 5735 5735 5736 5736 5737 5737 5738 5739 5739 5739 5740 5740 5741 5741 5741 5741 5740 5740 5740 5740 5740 5740 5739 5739 5738 5737 5736 5735 5733 5732 5730 5729 5728 5727 5726 5725 5723 5721 5719 5717 5715 5713
5726 5727 5727 5728 5729 5730 5730 5731 5732 5732 5732 5733 5733 5734 5734 5734 5734 5734 5734 5734 5734 5734 5734 5733 5733 5732 5732 5731 5730 5729 5727 5726 5724 5723 5722 5721 5719 5718 5717 5715 5713 5711 5709 5706
5718 5720 5720 5721 5723 5724 5724 5724 5725 5725 5726 5726 5727 5727 5727 5727 5727 5727 5727 5727 5727 5727 5727 5726 5726 5726 5725 5724 5724 5722 5721 5720 5718 5717 5716 5714 5713 5712 5710 5708 5706 5705 5703 5701
5711 5712 5714 5714 5716 5717 5717 5718 5718 5719 5719 5720 5720 5720 5720 5720 5721 5721 5721 5720 5720 5720 5720 5719 5719 5719 5718 5718 5717 5716 5714 5713 5712 5711 5710 5708 5707 5705 5704 5702 5700 5699 5697 5695
5704 5705 5707 5708 5709 5709 5710 5711 5712 5713 5713 5713 5713 5713 5713 5713 5713 5714 5714 5714 5713 5713 5713 5712 5712 5712 5711 5711 5710 5709 5708 5707 5705 5704 5703 5702 5700 5699 5698 5696 5694 5692 5691 5689
5696 5698 5699 5700 5701 5702 5704 5704 5705 5706 5706 5706 5706 5706 5706 5706 5707 5707 5707 5707 5706 5706 5705 5705 5704 5704 5704 5703 5703 5702 5701 5700 5699 5698 5697 5695 5694 5693 5691 5690 5688 5686 5684 5682
5689 5690 5692 5693 5694 5695 5697 5698 5699 5699 5699 5700 5700 5700 5700 5700 5700 5700 5700 5700 5699 5699 5699 5698 5698 5697 5697 5696 5695 5695 5694 5693 5692 5691 5690 5689 5687 5686 5685 5683 5682 5680 5678 5677
5681 5683 5685 5686 5687 5688 5690 5691 5692 5693 5693 5693 5693 5693 5693 5693 5693 5693 5693 5693 5693 5692 5692 5691 5691 5690 5690 5689 5688 5688 5687 5686 5685 5684 5683 5682 5680 5679 5678 5677 5675 5674 5672 5670
5674 5676 5678 5679 5681 5682 5683 5684 5685 5686 5687 5687 5687 5687 5687 5687 5687 5687 5686 5686 5686 5685 5685 5684 5684 5683 5683 5682 5682 5681 5680 5680 5678 5678 5677 5676 5674 5673 5672 5670 5669 5667 5666 5664
5669 5670 5671 5673 5674 5675 5676 5677 5679 5679 5680 5680 5680 5681 5681 5680 5680 5680 5679 5679 5679 5678 5678 5678 5677 5677 5677 5676 5675 5675 5674 5673 5672 5671 5671 5669 5668 5667 5665 5664 5663 5661 5659 5657
5663 5664 5665 5666 5667 5668 5669 5670 5671 5672 5673 5673 5673 5673 5674 5673 5673 5673 5673 5673 5672 5672 5671 5671 5671 5670 5670 5670 5669 5669 5668 5667 5666 5665 5665 5664 5662 5661 5659 5658 5656 5654 5652 5650
5657 5658 5658 5660 5661 5661 5662 5663 5664 5665 5666 5666 5666 5666 5667 5667 5666 5666 5666 5666 5666 5665 5665 5665 5664 5664 5664 5663 5663 5663 5662 5661 5660 5659 5659 5657 5656 5654 5653 5651 5650 5648 5646 5644
5651 5651 5652 5653 5654 5655 5656 5656 5657 5658 5658 5658 5659 5659 5660 5660 5660 5660 5659 5659 5659 5659 5658 5658 5658 5658 5657 5657 5657 5656 5656 5655 5654 5653 5652 5651 5650 5648 5647 5645 5643 5641 5640 5638
5646 5646 5646 5646 5647 5648 5649 5650 5650 5651 5651 5652 5652 5652 5652 5652 5653 5653 5653 5652 5652 5652 5651 5651 5651 5650 5650 5650 5650 5650 5649 5649 5648 5647 5646 5645 5643 5642 5640 5639 5637 5635 5633 5631
5641 5640 5640 5640 5641 5641 5642 5643 5643 5644 5644 5645 5645 5645 5645 5645 5646 5645 5645 5645 5645 5644 5644 5644 5644 5643 5643 5643 5643 5643 5643 5642 5641 5640 5639 5638 5637 5636 5634 5632 5631 5629 5627 5625
5635 5635 5635 5635 5635 5635 5636 5636 5637 5637 5637 5638 5638 5638 5638 5638 5638 5638 5638 5637 5637 5637 5637 5637 5636 5636 5636 5636 5636 5636 5636 5635 5634 5633 5632 5631 5630 5629 5628 5626 5624 5622 5621 5618